This is the latest recevied weather packets stored in our database for station/object K7LDN-13. If no packets are shown the sender has not sent any weather packets the latest 10 day(s).
| Time | Temp. | Humidity | Pressure | Rain* | Wind** | Luminosity | Snow |
|---|---|---|---|---|---|---|---|
| 1777484085 | 14.44° C | 35% | 1023.2 hPa | 0 mm | - | 858 W/m² | - |
| 1777483781 | 13.89° C | 35% | 1023.3 hPa | 0 mm | - | 832 W/m² | - |
| 1777483478 | 13.89° C | 35% | 1023.3 hPa | 0 mm | - | 801 W/m² | - |
| 1777483173 | 13.89° C | 40% | 1023.4 hPa | 0 mm | - | 796 W/m² | - |
| 1777482870 | 13.89° C | 42% | 1023.4 hPa | 0 mm | - | 770 W/m² | - |
| 1777482565 | 13.33° C | 40% | 1023.4 hPa | 0 mm | - | 755 W/m² | - |
| 1777482263 | 13.33° C | 44% | 1023.4 hPa | 0 mm | - | 739 W/m² | - |
| 1777481960 | 12.78° C | 45% | 1023.4 hPa | 0 mm | - | 726 W/m² | - |
| 1777481658 | 12.78° C | 47% | 1023.3 hPa | 0 mm | - | 711 W/m² | - |
| 1777481355 | 12.78° C | 48% | 1023.3 hPa | 0 mm | - | 701 W/m² | - |
| 1777481051 | 12.22° C | 48% | 1023.3 hPa | 0 mm | - | 688 W/m² | - |
| 1777480748 | 11.67° C | 50% | 1023.4 hPa | 0 mm | - | 674 W/m² | - |
| 1777480444 | 12.22° C | 49% | 1023.4 hPa | 0 mm | - | 662 W/m² | - |
| 1777480141 | 12.22° C | 50% | 1023.4 hPa | 0 mm | - | 653 W/m² | - |
| 1777479837 | 11.67° C | 49% | 1023.5 hPa | 0 mm | - | 642 W/m² | - |
| 1777479534 | 11.67° C | 50% | 1023.6 hPa | 0 mm | - | 623 W/m² | - |
| 1777479231 | 11.67° C | 50% | 1023.7 hPa | 0 mm | - | 608 W/m² | - |
| 1777478927 | 11.67° C | 49% | 1023.6 hPa | 0 mm | - | 601 W/m² | - |
| 1777478624 | 11.11° C | 49% | 1023.5 hPa | 0 mm | - | 581 W/m² | - |
| 1777478322 | 11.11° C | 49% | 1023.3 hPa | 0 mm | - | 562 W/m² | - |
| 1777478018 | 11.11° C | 49% | 1023.5 hPa | 0 mm | - | 546 W/m² | - |
| 1777477712 | 10.56° C | 49% | 1023.3 hPa | 0 mm | - | 523 W/m² | - |
| 1777477410 | 10.56° C | 49% | 1023.7 hPa | 0 mm | - | 506 W/m² | - |
| 1777477106 | 10.56° C | 47% | 1023.6 hPa | 0 mm | - | 489 W/m² | - |
| 1777476804 | 10° C | 47% | 1023.5 hPa | 0 mm | - | 466 W/m² | - |
* Rain latest hour (hover to see other rain measurements)
** Current wind speed in m/s (hover to see current wind gust speed)